Location: Finney State Fishing Lake and Wildlife Area
(38.1834°N, 100.3310°W)
Time: 13:28:21
(UTC+00:00)

Cosmos 1758 - Pass Details

Date: 17 October 2021
Orbit: 540 x 560 km, 82.5° (Epoch: 04 December)

Event Time Altitude Azimuth Distance (km) Brightness Sun altitude
Rises 11:58:57 0° 346° (NNW) 2,705 6.7 -11.2°
Reaches altitude 10° 12:01:09 10° 341° (NNW) 1,810 5.7 -10.8°
Maximum altitude 12:05:00 49° 266° (W) 703 3.5 -10.1°
Drops below altitude 10° 12:08:50 10° 191° (SSW) 1,804 5.9 -9.3°
Sets 12:11:01 0° 186° (S) 2,694 6.8 -8.9°
